Hourly Data Report for October 26, 2016

All times are specified in Local Standard Time (LST). Add 1 hour to adjust for Daylight Saving Time where and when it is observed.

RESOLUTE BAY A
NUNAVUT

74°43'01.000" N
94°58'10.000" W
67.70 m
2403498
71924
YRB

Download Data

Hourly Data (October 2016)
Hourly Data Report for October 26, 2016
Temp Definition
°C
Dew Point Temp Definition
°C
Rel Hum Definition
%
Wind Dir Definition
10's deg

Wind Spd Definition
km/h
Visibility Definition
km
Stn Press Definition
kPa
Hmdx Definition


Wind Chill Definition


Weather Definition


TIME
00:00 Legend Double Dagger -19.3 -22.1 79 32 25 24.1 100.70   -31 Cloudy
01:00 Legend Double Dagger -20.3 -23.1 79 32 22 24.1 100.69   -31 LegendNANA
02:00 Legend Double Dagger -19.6 -22.2 80 34 20 24.1 100.69   -30 Ice Crystals
03:00 Legend Double Dagger -19.7 -22.5 79 34 27 24.1 100.68   -32 Ice Crystals
04:00 Legend Double Dagger -19.4 -22.2 79 32 23 24.1 100.66   -30 Snow
05:00 Legend Double Dagger -22.1 -25.3 76 34 15 24.1 100.64   -32 Ice Crystals
06:00 Legend Double Dagger -21.7 -24.7 77 35 26 24.1 100.62   -34 Ice Crystals
07:00 Legend Double Dagger -22.2 -25.2 77 34 21 24.1 100.64   -34 Ice Crystals
08:00 Legend Double Dagger -21.3 -24.2 78 31 14 24.1 100.64   -30 Ice Crystals
09:00 Legend Double Dagger -21.7 -24.6 78 34 27 24.1 100.61   -34 Ice Crystals
10:00 Legend Double Dagger -21.9 -24.8 78 34 21 24.1 100.62   -33 Ice Crystals
11:00 Legend Double Dagger -20.8 -23.7 78 35 16 16.1 100.58   -30 Ice Crystals
12:00 Legend Double Dagger -19.4 -22.2 79 33 17 19.3 100.57   -29 Ice Crystals
13:00 Legend Double Dagger -18.5 -21.3 79 32 25 24.1 100.54   -30 Ice Crystals
14:00 Legend Double Dagger -18.3 -21.1 79 32 21 24.1 100.55   -29 LegendNANA
15:00 Legend Double Dagger -17.9 -20.7 79 32 21 24.1 100.55   -28 Cloudy
16:00 Legend Double Dagger -18.0 -20.8 79 32 21 24.1 100.56   -28 Snow
17:00 Legend Double Dagger -18.0 -20.8 79 32 26 24.1 100.56   -29 Snow
18:00 Legend Double Dagger -18.1 -20.8 80 32 25 24.1 100.58   -29 Snow
19:00 Legend Double Dagger -19.6 -22.5 78 35 16 24.1 100.60   -29 Snow
20:00 Legend Double Dagger -20.4 -24.2 72 36 26 24.1 100.63   -32 Ice Crystals
21:00 Legend Double Dagger -22.4 -25.7 75 2 24 24.1 100.67   -34 Ice Crystals
22:00 Legend Double Dagger -21.8 -25.3 74 34 15 24.1 100.73   -31 Ice Crystals
23:00 Legend Double Dagger -22.2 -25.5 75 35 14 24.1 100.79   -31 Ice Crystals

Notes on Data Quality.

Legend

  • E = Estimated
  • M = Missing
  • NA = Not Available
  • ‡ = Partner data that is not subject to review by the National Climate Archives
Date modified: